sat.trackr.live / text

‹ back to catalog

STARLINK-33720

NORAD 63468 · 2025-070J

PAYLOAD ACTIVE UNKNOWN

§ Identity

Operator
Country
US
Launch date
2025-04-06
Launch site
AFETR
Launch vehicle
Mass (kg)
RCS (m²)

Purposes: comms

External: N2YO · Heavens-Above · Gunter

§ Orbital elements

Epoch: 2026-05-25T04:16:24.924000Z

Period
94.27 min
Inclination
42.9995°
Eccentricity
0.0001625
Mean motion
15.27596462 rev/d
Perigee alt
481.9 km
Apogee alt
484.1 km
Semi-major
6,861.1 km
B*
4.8735e-4
RAAN
187.8986°
Arg perigee
265.1897°
Mean anomaly
94.8769°
Rev number
6,467

§ Raw data

STARLINK-337201 63468U 25070J   26145.17806625  .00013179  00000+0  48735-3 0  99942 63468  42.9995 187.8986 0001625 265.1897  94.8769 15.27596462 64679

JSON: /api/v1/satellites/63468 · /tle

For live sub-satellite position, see the globe view (requires WebGL).

§ Visibility from observer

Set your observer location to see the next 7 days of passes ≥ 10°. The values pass through the URL so the page stays shareable.

No JS? Fill the form by hand. The geolocation button needs JavaScript.